TimeEST,TemperatureF,Dew PointF,Humidity,Sea Level PressureIn,VisibilityMPH,Wind Direction,Wind SpeedMPH,Gust SpeedMPH,PrecipitationIn,Events,Conditions,WindDirDegrees,DateUTC
12:51 AM,26.1,19.9,78,30.09,10.0,North,4.6,-,N/A,,Scattered Clouds,360,2012-11-08 05:51:00
1:51 AM,28.9,21.0,72,30.10,10.0,North,8.1,-,N/A,,Scattered Clouds,10,2012-11-08 06:51:00
2:51 AM,27.0,21.0,78,30.11,10.0,North,5.8,-,N/A,,Scattered Clouds,360,2012-11-08 07:51:00
3:51 AM,28.0,21.0,75,30.10,10.0,Calm,Calm,-,N/A,,Scattered Clouds,0,2012-11-08 08:51:00
4:51 AM,25.0,21.0,85,30.13,10.0,NW,3.5,-,N/A,,Partly Cloudy,320,2012-11-08 09:51:00
5:09 AM,24.8,21.2,86,30.09,10.0,NW,3.5,-,N/A,,Mostly Cloudy,310,2012-11-08 10:09:00
5:51 AM,24.1,19.9,84,30.14,10.0,Calm,Calm,-,N/A,,Mostly Cloudy,0,2012-11-08 10:51:00
6:51 AM,26.1,21.9,84,30.16,10.0,NW,3.5,-,N/A,,Overcast,310,2012-11-08 11:51:00
7:35 AM,26.6,23.0,86,30.13,10.0,WNW,3.5,-,N/A,,Scattered Clouds,290,2012-11-08 12:35:00
7:51 AM,28.0,23.0,81,30.18,10.0,Calm,Calm,-,N/A,,Scattered Clouds,0,2012-11-08 12:51:00
8:51 AM,33.1,27.0,78,30.19,10.0,NNW,3.5,-,N/A,,Scattered Clouds,330,2012-11-08 13:51:00
9:51 AM,39.0,30.0,70,30.19,10.0,NNW,6.9,-,N/A,,Scattered Clouds,330,2012-11-08 14:51:00
10:32 AM,41.0,28.4,61,30.17,10.0,NNW,12.7,-,N/A,,Mostly Cloudy,330,2012-11-08 15:32:00
10:51 AM,39.9,28.9,65,30.20,10.0,NW,12.7,-,N/A,,Mostly Cloudy,320,2012-11-08 15:51:00
11:51 AM,41.0,28.0,60,30.18,10.0,NW,15.0,18.4,N/A,,Mostly Cloudy,320,2012-11-08 16:51:00
12:51 PM,43.0,28.9,58,30.17,10.0,NNW,10.4,-,N/A,,Mostly Cloudy,330,2012-11-08 17:51:00
1:11 PM,42.8,28.4,57,30.13,10.0,NW,12.7,-,N/A,,Scattered Clouds,310,2012-11-08 18:11:00
1:51 PM,45.0,28.9,53,30.16,10.0,NW,11.5,-,N/A,,Mostly Cloudy,310,2012-11-08 18:51:00
2:51 PM,45.0,28.9,53,30.14,10.0,WNW,10.4,-,N/A,,Partly Cloudy,300,2012-11-08 19:51:00
3:51 PM,43.0,28.9,58,30.14,10.0,NNW,9.2,-,N/A,,Partly Cloudy,330,2012-11-08 20:51:00
4:51 PM,39.0,28.0,65,30.16,10.0,NW,9.2,-,N/A,,Partly Cloudy,320,2012-11-08 21:51:00
5:51 PM,37.0,27.0,67,30.18,10.0,WNW,6.9,-,N/A,,Scattered Clouds,300,2012-11-08 22:51:00
6:51 PM,35.1,28.0,76,30.19,10.0,NW,5.8,-,N/A,,Partly Cloudy,310,2012-11-08 23:51:00
7:51 PM,34.0,27.0,75,30.19,10.0,Calm,Calm,-,N/A,,Partly Cloudy,0,2012-11-09 00:51:00
8:51 PM,28.9,26.1,89,30.19,10.0,Calm,Calm,-,N/A,,Partly Cloudy,0,2012-11-09 01:51:00
9:51 PM,28.9,26.1,89,30.19,10.0,Calm,Calm,-,N/A,,Scattered Clouds,0,2012-11-09 02:51:00
10:51 PM,28.0,26.1,92,30.18,10.0,Calm,Calm,-,N/A,,Partly Cloudy,0,2012-11-09 03:51:00
11:51 PM,28.9,26.1,89,30.18,8.0,Calm,Calm,-,N/A,,Clear,0,2012-11-09 04:51:00